Location: Bucharest
(44.4268°N, 26.1025°E)
Time: 17:41:20
(UTC+03:00)

ESTCUBE 1 - Pass Details

Date: 02 July 2022
Orbit: 645 x 657 km, 97.9° (Epoch: 18 August)

Event Time Altitude Azimuth Distance (km) Brightness Sun altitude
Exits shadow 21:46:25 - 101° (E) 2,521 ? -6.8°
Reaches altitude 10° 21:48:39 10° 79° (E) 2,051 ? -7.1°
Maximum altitude 21:50:09 12° 59° (ENE) 1,948 ? -7.3°
Drops below altitude 10° 21:51:39 10° 39° (NE) 2,058 ? -7.5°
Sets 21:55:21 0° 7° (N) 2,977 ? -8.0°
